Location: Tempio Pausania
(40.9000°N, 9.1000°E)
Time: 09:32:47
(UTC+02:00)

ISS - Visible Passes

Search period start: 08 May 2021 00:00
Search period end: 18 May 2021 00:00
Orbit: 418 x 421 km, 51.6° (Epoch: 08 May)

Date Brightness Start Highest point End Pass type
(mag) Time Alt. Az. Time Alt. Az. Time Alt. Az.
08 May -0.9 02:49:25 18° N 02:49:25 18° N 02:51:00 10° NNE visible
08 May -0.8 04:24:22 10° NNW 04:26:07 13° N 04:27:51 10° NNE visible
09 May -0.4 02:03:26 12° NE 02:03:26 12° NE 02:03:43 10° NE visible
09 May -0.8 03:36:36 10° NW 03:38:25 14° N 03:40:13 10° NNE visible
09 May -0.9 05:13:49 10° NNW 05:16:15 18° NNE 05:18:40 10° ENE visible
10 May -0.8 02:50:23 15° NNW 02:50:43 15° N 02:52:45 10° NNE visible
10 May -0.8 04:26:29 10° NNW 04:28:35 15° N 04:30:42 10° NE visible
11 May -0.5 02:04:21 14° NNE 02:04:21 14° NNE 02:05:24 10° NNE visible
11 May -0.6 03:39:03 10° NNW 03:40:54 14° N 03:42:45 10° NE visible
11 May -1.7 05:15:29 10° NW 05:18:32 30° NNE 05:21:34 10° E visible
12 May -0.6 02:51:27 10° NNW 02:53:12 13° N 02:54:56 10° NNE visible
12 May -1.2 04:28:12 10° NNW 04:30:57 23° NNE 04:33:42 10° ENE visible
13 May -0.6 02:05:02 13° NNW 02:05:29 14° N 02:07:18 10° NNE visible
13 May -0.8 03:40:53 10° NNW 03:43:19 18° NNE 03:45:45 10° ENE visible
13 May -3.5 05:17:14 10° NW 05:20:36 72° NE 05:23:58 10° ESE visible
14 May -0.5 01:18:38 14° N 01:18:38 14° N 01:19:49 10° NNE visible
14 May -0.6 02:53:33 10° NNW 02:55:39 15° N 02:57:46 10° NE visible
14 May -2.5 04:29:52 10° NW 04:33:08 44° NNE 04:36:23 10° ESE visible
14 May -2.1 21:14:17 10° SSE 21:16:19 15° SE 21:18:22 10° E visible
14 May -3.3 22:49:28 10° WSW 22:52:47 61° NNW 22:55:40 13° NE visible
15 May -0.8 00:27:49 10° WNW 00:30:08 17° NNW 00:32:27 10° NNE visible
15 May -0.5 02:06:07 10° NNW 02:07:59 14° N 02:09:49 10° NE visible
15 May -1.8 03:42:33 10° NW 03:45:36 30° NNE 03:48:38 10° E visible
15 May -3.2 05:19:18 10° WNW 05:22:27 37° SW 05:25:35 10° SSE visible
15 May -3.9 22:02:00 10° SW 22:05:21 80° SE 22:08:43 10° NE visible
15 May -1.1 23:39:51 10° WNW 23:42:29 21° NNW 23:45:08 10° NNE visible
16 May -0.4 01:18:32 10° NNW 01:20:16 13° N 01:22:00 10° NNE visible
16 May -1.2 02:55:15 10° NNW 02:58:00 23° NNE 03:00:46 10° ENE visible
16 May -3.9 04:31:44 10° WNW 04:35:05 66° SW 04:38:25 10° SE visible
16 May -3.5 21:14:45 10° SSW 21:17:58 45° SE 21:21:12 10° ENE visible
16 May -1.5 22:51:57 10° W 22:54:53 27° NNW 22:57:50 10° NE visible
17 May -0.4 00:30:45 10° NW 00:32:33 14° N 00:34:21 10° NNE visible
17 May -0.9 02:07:57 10° NNW 02:10:22 18° NNE 02:12:49 10° ENE visible
17 May -3.6 03:44:17 10° NW 03:47:39 73° NE 03:51:01 10° ESE visible
17 May -1.9 05:22:27 10° W 05:24:03 13° SW 05:25:39 10° SSW visible
17 May -2.2 22:04:09 10° W 22:07:20 38° NNW 22:10:31 10° NE visible
17 May -0.5 23:42:51 10° NW 23:44:51 15° N 23:46:51 10° NNE visible
